Domov               UVHVVR             MKGP            O straneh              
ZDRAVSTVENO VARSTVO RASTLIN
  MREŽA AGROMET. POSTAJ
 ► PROGNOSTIČNA OBVESTILA
AGROMETEOROLOŠKI PODATKI -
ARSO
OBVLADOVANJE TVEGANJ ZARADI
NEUGODNIH VREMENSKIH RAZMER
  ► NARAVNE NESREČE
  ► SUŠA/MOČA
  ► NAMAKANJE
  ► ŽLED (gozdarstvo)
KARTOGRAFSKI PRIKAZI
SPLETNE POVEZAVE
PROJEKTI IN PUBLIKACIJE

AGROMETEOROLOŠKA MREŽA: VREMENSKE POSTAJE IN FENOLOŠKA OPAZOVANJA

Pregled podatkov za lokacijo Maribor - BTŠ, meteorološka postaja 35810

Pregled senzorjev na lokaciji

ID Ime Zadnja
vrednost
Datum
zadnje
spremembe
Tip
senzorja
1721 Temperatura 2 m ( °C) 28,25 °C 17.8.2017 19:00 Generic -40 - +60 °C
1722 Relativna vlaga 2 m (% RH) 40,54 % RH 17.8.2017 19:00 Generic 0 - 100 %
1723 Padavine 0.2 mm (mm) 0 mm 17.8.2017 19:00 Generic 0.2 mm
1724 Omočenost lista (U) 0 U 17.8.2017 19:00 A730WET

Pregled podatkov zadnjih 24 ur

Zap.
št.
Datum in čas Maribor - BTŠ
Omočenost
lista
Padavine
0.2
mm
Relativna
vlaga
2
m
Temperatura
2
m
0 17.8.2017 18:00 0 0 40,54 28,25
1 17.8.2017 17:30 0 0 40,83 28,82
2 17.8.2017 17:00 0 0 37,22 29,57
3 17.8.2017 16:30 0 0 38,49 30,16
4 17.8.2017 16:00 0 0 37,29 30,06
5 17.8.2017 15:30 0 0 38,49 30,13
6 17.8.2017 15:00 0 0 38,34 29,99
7 17.8.2017 14:30 0 0 41,22 30,09
8 17.8.2017 14:00 0 0 40,78 29,67
9 17.8.2017 13:30 0 0 42,03 29,01
10 17.8.2017 13:00 0 0 44,15 28,79
11 17.8.2017 12:30 0 0 44,98 28,42
12 17.8.2017 12:00 0 0 45,81 27,74
13 17.8.2017 11:30 0 0 47,01 26,98
14 17.8.2017 11:00 0 0 49,04 26,91
15 17.8.2017 10:30 0 0 50,62 26,62
16 17.8.2017 10:00 0 0 52,8 25,76
17 17.8.2017 09:30 0 0 61,59 23,98
18 17.8.2017 09:00 0 0 67,62 22,3
19 17.8.2017 08:30 0 0 72,31 21,03
20 17.8.2017 08:00 0 0 76,34 20,02
21 17.8.2017 07:30 0 0 79,76 19,07
22 17.8.2017 07:00 0 0 84,18 18
23 17.8.2017 06:30 0 0 86,13 17,44
24 17.8.2017 06:00 1 0 88,57 16,9
25 17.8.2017 05:30 1 0 89,4 16,68
26 17.8.2017 05:00 1 0 89,67 16,65
27 17.8.2017 04:30 1 0 89,87 16,78
28 17.8.2017 04:00 1 0 90,79 16,56
29 17.8.2017 03:30 1 0 90,21 16,68
30 17.8.2017 03:00 1 0 89,79 16,75
31 17.8.2017 02:30 1 0 89,57 16,7
32 17.8.2017 02:00 1 0 89,87 16,61
33 17.8.2017 01:30 1 0 90,23 16,61
34 17.8.2017 01:00 1 0 91,4 16,48
35 17.8.2017 00:30 1 0 91,14 16,73
36 17.8.2017 00:00 0 0 94,11 16,51
37 16.8.2017 23:30 0 0 87,77 17,05
38 16.8.2017 23:00 0 0 86,45 17,46
39 16.8.2017 22:30 0 0 86,35 17,92
40 16.8.2017 22:00 0 0 85,98 18,07
41 16.8.2017 21:30 0 0 85,98 18,14
42 16.8.2017 21:00 0 0 85,03 18,32
43 16.8.2017 20:30 0 0 83,83 18,56
44 16.8.2017 20:00 0 0 81,44 18,9
45 16.8.2017 19:30 3 0 78,88 19,37
© 2011 Ministrstvo za kmetijstvo, gozdarstvo in prehrano. Vse pravice pridržane.